sat.trackr.live / text

‹ back to catalog

STARLINK-30778

NORAD 58182 · 2023-167H

PAYLOAD ACTIVE UNKNOWN

§ Identity

Operator
Country
US
Launch date
2023-10-30
Launch site
AFETR
Launch vehicle
Mass (kg)
RCS (m²)

Purposes: comms

External: N2YO · Heavens-Above · Gunter

§ Orbital elements

Epoch: 2026-09-20T21:59:34.490688Z

Period
94.27 min
Inclination
43.0017°
Eccentricity
0.0000975
Mean motion
15.27578306 rev/d
Perigee alt
482.4 km
Apogee alt
483.7 km
Semi-major
6,861.2 km
B*
1.4699e-5
RAAN
120.7603°
Arg perigee
274.4174°
Mean anomaly
85.6567°
Rev number
16,084

§ Raw data

STARLINK-307781 58182U 23167H   26263.91637142  .00000143  00000+0  14699-4 0  99952 58182  43.0017 120.7603 0000975 274.4174  85.6567 15.27578306160840

JSON: /api/v1/satellites/58182 · /tle

For live sub-satellite position, see the globe view (requires WebGL).

§ Visibility from observer

Set your observer location to see the next 7 days of passes ≥ 10°. The values pass through the URL so the page stays shareable.

No JS? Fill the form by hand. The geolocation button needs JavaScript.